Flag for Canada Weather past 2 weeks in Laval, Quebec, Canada

Now
37 °F

Passing clouds.


Feels Like: 29 °F
Forecast: 34 / 39 °F
Wind: 14 mph from Southwest

Location: Montreal / Mirabel

Current Time: Dec 26, 2014 at 5:20:42 AM

Latest Report: Dec 26, 2014 at 5:00 AM


Visibility: 25 mi

Pressure: 29.99 "Hg

Humidity: 75%

Dew point: 30 °F

Location of LavalLocation

Historic Weather in Laval — Graph

°F

Laval temperature yesterday

Maximum temperature yesterday: 43 °F (at 5:00 AM)
Minimum temperature yesterday: 36 °F (at 12:00 AM)
Average temperature yesterday: 39 °F

Past Weeks' High & Low Weather Summary

 TemperatureHumidityPressure
High43 °F (Dec 25, 5:00 AM)100% (Dec 11, 2:00 PM)30.44 "Hg (Dec 11, 2:00 PM)
Low3 °F (Dec 20, 7:00 AM)63% (Dec 19, 3:00 PM)29.27 "Hg (Dec 25, 3:00 AM)
Average26 °F87%29.99 "Hg
* Reported Dec 11 4:00 AM — Dec 26 4:00 AM, Laval, Weather by CustomWeather, © 2014

Note: Actual official high and low records may vary slightly from our data, if they occured in-between our weather recording intervals... More about our weather records

Advertising

Laval weather history for previous 24 hours

 ConditionsComfort  
Time TempWeatherWind HumidityBarometerVisibility
4:00 AM
Dec 26
37 °FPassing clouds.13 mph75%29.96 "Hg25 mi
3:00 AM37 °FPassing clouds.15 mph70%29.95 "Hg25 mi
2:00 AM37 °FPassing clouds.10 mph70%29.92 "Hg25 mi
1:00 AM37 °FPassing clouds.14 mph70%29.89 "Hg25 mi
12:00 AM37 °FMostly cloudy.14 mph70%29.88 "Hg25 mi
11:00 PM
Dec 25
37 °FOvercast.15 mph70%29.84 "Hg25 mi
10:00 PM37 °FPassing clouds.15 mph70%29.83 "Hg25 mi
9:00 PM37 °FPassing clouds.14 mph70%29.81 "Hg25 mi
8:00 PM37 °FPassing clouds.15 mph65%29.79 "Hg25 mi
7:00 PM37 °FMostly cloudy.16 mph65%29.75 "Hg25 mi
6:00 PM39 °FSprinkles. Mostly cloudy.17 mph70%29.69 "Hg25 mi
5:00 PM39 °FMostly cloudy.17 mph75%29.64 "Hg25 mi
4:00 PM37 °FSprinkles. Broken clouds.17 mph87%29.60 "Hg25 mi
3:00 PM39 °FBroken clouds.20 mph81%29.53 "Hg45 mi
2:00 PM41 °FSprinkles. Partly sunny.20 mph70%29.46 "Hg45 mi
1:53 PM41 °FSprinkles. Partly sunny.20 mph70%29.45 "Hg45 mi
1:00 PM41 °FSprinkles. Partly sunny.15 mph70%29.41 "Hg45 mi
12:00 PM41 °FSprinkles. Partly sunny.20 mph70%29.39 "Hg45 mi
11:00 AM41 °FBroken clouds.17 mph70%29.38 "Hg45 mi
10:00 AM41 °FBroken clouds.26 mph70%29.35 "Hg45 mi
9:00 AM41 °FPartly sunny.20 mph70%29.32 "Hg45 mi
8:00 AM41 °FPartly sunny.26 mph70%29.29 "Hg45 mi
7:00 AM41 °FOvercast.23 mph70%29.30 "Hg25 mi
6:00 AM41 °FMostly cloudy.18 mph76%29.30 "Hg20 mi
5:00 AM43 °FLight rain. Mostly cloudy.18 mph100%29.27 "Hg10 mi
Weather by CustomWeather, © 2014

See weather overviewHow to use our weather pages